Weather History for KOTG - April, 2013

Change the Weather History Date:

Friday, April 19, 2013

  Actual Average Record
Temperature  
Mean Temperature 27 °F -  
Max Temperature 33 °F 55 °F 90 °F (1985)
Min Temperature 21 °F 35 °F 21 °F (2013)
Degree Days  
Heating Degree Days 38    
Moisture  
Dew Point 19 °F    
Average Humidity 69    
Maximum Humidity 80    
Minimum Humidity 60    
Precipitation  
Precipitation 0.00 in - - ()
Sea Level Pressure  
Sea Level Pressure 29.84 in    
Wind  
Wind Speed 23 mph (NW)    
Max Wind Speed 29 mph    
Max Gust Speed 36 mph    
Visibility 10 miles    
Events      
Averages and records for this station are not official NWS values.
T = Trace of Precipitation, MM = Missing Value Source: NWS Daily Summary

Daily Weather History Graph

Daily Weather History Graph

Search for Another Location

Airport or City:

Trip Planner

Search our weather history database for the weather conditions in past years. The results will help you decide how hot, cold, wet, or windy it might be!

Date:

Astronomy

Apr. 19, 2013 Rise Set
Actual Time 6:32 AM CDT 8:10 PM CDT
Civil Twilight 6:02 AM CDT 8:41 PM CDT
Nautical Twilight 5:25 AM CDT 9:18 PM CDT
Astronomical Twilight 4:46 AM CDT 9:57 PM CDT
Moon 1:45 PM CDT (4/19) 3:00 AM CDT (4/19)
Length of Visible Light 14h 38m
Length of Day
13h 38m
First Quarter, 62% of the Moon is Illuminated
Apr 19
First Quarter
Apr 25
Full
May 2
Last Quarter
May 9
New
May 17
First Quarter

Hourly Weather History & Observations

Time (CDT) Temp. Windchill Dew Point Humidity Pressure Visibility Wind Dir Wind Speed Gust Speed Precip Events Conditions
12:15 AM - - - N/A% 29.70 in 1.8 mi NW 28.8 mph 35.7 mph N/A   Overcast
12:35 AM - - - N/A% 29.70 in 2.5 mi NW 25.3 mph 34.5 mph N/A   Overcast
12:55 AM - - - N/A% 29.70 in 2.5 mi NW 28.8 mph 33.4 mph N/A   Overcast
1:15 AM - - - N/A% 29.70 in 3.0 mi NW 26.5 mph 34.5 mph N/A   Mostly Cloudy
1:35 AM - - - N/A% 29.69 in 4.0 mi NW 27.6 mph - N/A   Clear
1:55 AM 26.6 °F 12.0 °F 19.4 °F 74% 29.70 in 9.0 mi NW 23.0 mph - N/A   Clear
2:15 AM 24.8 °F 9.6 °F 19.4 °F 80% 29.69 in 10.0 mi NW 23.0 mph 28.8 mph N/A   Clear
2:35 AM 24.8 °F 9.6 °F 17.6 °F 74% 29.69 in 10.0 mi NW 23.0 mph - N/A   Clear
2:55 AM 24.8 °F 9.6 °F 17.6 °F 74% 29.69 in 10.0 mi NW 23.0 mph - N/A   Clear
3:15 AM 24.8 °F 10.0 °F 17.6 °F 74% 29.69 in 10.0 mi NW 21.9 mph - N/A   Clear
3:35 AM 24.8 °F 9.6 °F 17.6 °F 74% 29.69 in 10.0 mi NW 23.0 mph - N/A   Clear
3:55 AM 24.8 °F 9.6 °F 17.6 °F 74% 29.69 in 10.0 mi NW 23.0 mph 26.5 mph N/A   Clear
4:15 AM 24.8 °F 10.7 °F 17.6 °F 74% 29.69 in 10.0 mi NW 19.6 mph 26.5 mph N/A   Clear
4:35 AM 24.8 °F 10.7 °F 17.6 °F 74% 29.69 in 10.0 mi NW 19.6 mph - N/A   Clear
4:55 AM 23.0 °F 8.3 °F 15.8 °F 74% 29.70 in 10.0 mi WNW 19.6 mph - N/A   Clear
5:15 AM 21.2 °F 5.2 °F 15.8 °F 80% 29.70 in 10.0 mi WNW 21.9 mph - N/A   Clear
5:55 AM 21.2 °F 6.0 °F 15.8 °F 80% 29.70 in 10.0 mi WNW 19.6 mph - N/A   Clear
6:15 AM 21.2 °F 5.6 °F 15.8 °F 80% 29.71 in 10.0 mi WNW 20.7 mph - N/A   Clear
6:35 AM 21.2 °F 5.6 °F 15.8 °F 80% 29.72 in 10.0 mi WNW 20.7 mph - N/A   Clear
6:55 AM 23.0 °F 7.6 °F 15.8 °F 74% 29.72 in 10.0 mi WNW 21.9 mph - N/A   Clear
7:15 AM 23.0 °F 7.6 °F 15.8 °F 74% 29.73 in 10.0 mi NW 21.9 mph - N/A   Clear
7:35 AM 21.2 °F 6.0 °F 15.8 °F 80% 29.74 in 10.0 mi WNW 19.6 mph - N/A   Clear
7:55 AM 23.0 °F 8.0 °F 15.8 °F 74% 29.74 in 10.0 mi WNW 20.7 mph 25.3 mph N/A   Clear
8:15 AM 24.8 °F 10.3 °F 15.8 °F 69% 29.75 in 10.0 mi WNW 20.7 mph - N/A   Clear
8:35 AM 24.8 °F 10.0 °F 17.6 °F 74% 29.75 in 10.0 mi WNW 21.9 mph - N/A   Clear
8:55 AM 24.8 °F 10.0 °F 17.6 °F 74% 29.75 in 10.0 mi WNW 21.9 mph - N/A   Clear
9:15 AM 26.6 °F 12.0 °F 17.6 °F 69% 29.76 in 10.0 mi WNW 23.0 mph 26.5 mph N/A   Clear
9:55 AM 26.6 °F 12.7 °F 17.6 °F 69% 29.77 in 10.0 mi WNW 20.7 mph - N/A   Clear
10:15 AM 28.4 °F 14.7 °F 19.4 °F 69% 29.78 in 10.0 mi WNW 21.9 mph - N/A   Clear
10:35 AM 28.4 °F 15.1 °F 19.4 °F 69% 29.79 in 10.0 mi WNW 20.7 mph - N/A   Clear
10:55 AM 28.4 °F 14.7 °F 19.4 °F 69% 29.79 in 10.0 mi WNW 21.9 mph - N/A   Clear
11:15 AM 28.4 °F 14.4 °F 19.4 °F 69% 29.80 in 10.0 mi WNW 23.0 mph - N/A   Clear
11:35 AM 30.2 °F 17.4 °F 21.2 °F 69% 29.81 in 10.0 mi NW 20.7 mph - N/A   Clear
11:55 AM - - - N/A% 29.81 in 10.0 mi NW 28.8 mph 33.4 mph N/A   Clear
12:15 PM - - - N/A% 29.82 in 10.0 mi NW 23.0 mph - N/A   Scattered Clouds
12:35 PM - - - N/A% 29.83 in 10.0 mi NW 25.3 mph - N/A   Mostly Cloudy
12:55 PM 33.8 °F 21.0 °F 21.2 °F 60% 29.85 in 10.0 mi NW 25.3 mph 32.2 mph N/A   Mostly Cloudy
1:15 PM 33.8 °F 21.6 °F 21.2 °F 60% 29.85 in 10.0 mi NW 23.0 mph 29.9 mph N/A   Mostly Cloudy
1:35 PM 33.8 °F 21.3 °F 21.2 °F 60% 29.86 in 10.0 mi NW 24.2 mph 28.8 mph N/A   Mostly Cloudy
1:55 PM 32.0 °F 18.1 °F 21.2 °F 64% 29.87 in 10.0 mi NW 27.6 mph 33.4 mph N/A   Mostly Cloudy
2:15 PM 33.8 °F 21.3 °F 21.2 °F 60% 29.87 in 10.0 mi NW 24.2 mph 31.1 mph N/A   Mostly Cloudy
2:35 PM - - - N/A% 29.87 in 10.0 mi NW 25.3 mph - N/A   Mostly Cloudy
2:55 PM 33.8 °F 21.0 °F 21.2 °F 60% 29.88 in 10.0 mi NW 25.3 mph 32.2 mph N/A   Mostly Cloudy
3:15 PM 33.8 °F 20.8 °F 21.2 °F 60% 29.89 in 10.0 mi NW 26.5 mph 31.1 mph N/A   Partly Cloudy
3:35 PM 33.8 °F 21.3 °F 21.2 °F 60% 29.90 in 10.0 mi NW 24.2 mph - N/A   Clear
3:55 PM 33.8 °F 21.9 °F 21.2 °F 60% 29.90 in 10.0 mi NW 21.9 mph 28.8 mph N/A   Clear
4:15 PM 33.8 °F 21.0 °F 21.2 °F 60% 29.91 in 10.0 mi NW 25.3 mph - N/A   Partly Cloudy
4:35 PM 33.8 °F 21.0 °F 21.2 °F 60% 29.91 in 10.0 mi NW 25.3 mph 31.1 mph N/A   Partly Cloudy
4:55 PM 33.8 °F 21.6 °F 21.2 °F 60% 29.93 in 10.0 mi NW 23.0 mph 29.9 mph N/A   Clear
5:15 PM 33.8 °F 21.6 °F 21.2 °F 60% 29.94 in 10.0 mi NW 23.0 mph 27.6 mph N/A   Clear
5:35 PM - - - N/A% 29.94 in 10.0 mi NW 25.3 mph 32.2 mph N/A   Clear
5:55 PM 33.8 °F 21.3 °F 21.2 °F 60% 29.95 in 10.0 mi NW 24.2 mph - N/A   Clear
6:15 PM 33.8 °F 22.2 °F 21.2 °F 60% 29.96 in 10.0 mi NW 20.7 mph 28.8 mph N/A   Clear
6:35 PM 32.0 °F 19.2 °F 21.2 °F 64% 29.97 in 10.0 mi NW 23.0 mph 26.5 mph N/A   Clear
6:55 PM 32.0 °F 20.5 °F 21.2 °F 64% 29.97 in 10.0 mi NW 18.4 mph - N/A   Clear
7:15 PM 30.2 °F 17.8 °F 19.4 °F 64% 29.98 in 10.0 mi NW 19.6 mph 25.3 mph N/A   Clear
7:35 PM 30.2 °F 19.3 °F 19.4 °F 64% 29.99 in 10.0 mi NW 15.0 mph - N/A   Clear
7:55 PM 30.2 °F 18.9 °F 19.4 °F 64% 29.99 in 10.0 mi NW 16.1 mph - N/A   Clear
8:15 PM 28.4 °F 17.0 °F 19.4 °F 69% 30.00 in 10.0 mi NW 15.0 mph - N/A   Clear
8:35 PM 28.4 °F 18.5 °F 19.4 °F 69% 30.01 in 10.0 mi NW 11.5 mph - N/A   Clear
8:55 PM 28.4 °F 17.5 °F 19.4 °F 69% 30.02 in 10.0 mi NW 13.8 mph - N/A   Clear
9:15 PM 26.6 °F 15.7 °F 19.4 °F 74% 30.03 in 10.0 mi NW 12.7 mph - N/A   Clear
9:35 PM 26.6 °F 15.7 °F 17.6 °F 69% 30.04 in 10.0 mi NW 12.7 mph - N/A   Clear
9:55 PM 26.6 °F 16.2 °F 17.6 °F 69% 30.05 in 10.0 mi NW 11.5 mph - N/A   Clear
10:15 PM 26.6 °F 15.2 °F 17.6 °F 69% 30.05 in 10.0 mi NW 13.8 mph - N/A   Clear
10:35 PM 26.6 °F 15.2 °F 17.6 °F 69% 30.05 in 10.0 mi NW 13.8 mph - N/A   Clear
10:55 PM 26.6 °F 15.7 °F 15.8 °F 64% 30.05 in 10.0 mi NW 12.7 mph - N/A   Clear
11:15 PM 24.8 °F 12.9 °F 15.8 °F 69% 30.06 in 10.0 mi NW 13.8 mph - N/A   Clear
11:35 PM 24.8 °F 14.0 °F 15.8 °F 69% 30.06 in 10.0 mi NW 11.5 mph - N/A   Clear
11:55 PM 24.8 °F 14.6 °F 15.8 °F 69% 30.07 in 10.0 mi NW 10.4 mph - N/A   Clear